Regional Weather Roundup
Issued by NWS

Home | Current Version | Previous Version | Text Only | Print | Product List | Glossary On
Versions: 1 2 3 4 5 6 7 8 9 10 11 12 13 14 15 16 17 18 19 20 21 22 23 24 25 26 27 28 29 30 31 32 33 34 35 36 37 38 39 40 41 42 43 44 45 46 47 48 49 50
000
ASUS42 KFFC 301310
RWRGA
WEATHER ROUNDUP FOR GEORGIA
NATIONAL WEATHER SERVICE PEACHTREE CITY GA
900 AM EDT FRI SEP 30 2016

NOTE: "FAIR" INDICATES FEW OR NO CLOUDS BELOW 12,000 FEET WITH NO
SIGNIFICANT WEATHER AND/OR OBSTRUCTIONS TO VISIBILITY.

* = USE WITH CAUTION. THE STATIONS MARKED WITH AN ASTERISK MAY NOT
REPORT WEATHER SUCH AS PRECIPITATION, FOG, OR THUNDER AND ARE NOT
QUALITY CONTROLLED BY NWS.

THE REMARK "TC" DENOTES TEMPERATURE READING IN DEGREES CELSIUS.

GAZ001>058-301400-
NORTH GEORGIA

CITY           SKY/WX    TMP DP  RH WIND       PRES   REMARKS
ATLANTA        SUNNY     56  50  80 NW8       30.05S
ATHENS         SUNNY     55  51  86 CALM      30.02R
CHAMBLEE       SUNNY     57  49  74 NW8       30.05R
PEACHTREE CITY MOSUNNY   56  51  84 NW5       30.07S
ROME           SUNNY     54  49  83 CALM      30.06S
WEST ATLANTA   SUNNY     56  49  77 W3        30.06R
GAINESVILLE    SUNNY     56  50  80 W10       30.05R
CARTERSVILLE   SUNNY     52  48  86 CALM      30.07R


CITY           SKY/WX    TMP DP  RH WIND       PRES   REMARKS
DALTON*        SUNNY     52  52 100 NE3       30.06S
LAWRENCEVILLE* SUNNY     55  48  76 W7        30.03R
MARIETTA       SUNNY     55  49  81 W8        30.05R
KENNESAW*      SUNNY     54  45  71 W7        30.07S
CANTON*        SUNNY     54  45  71 W3        30.06R
BLAIRSVILLE*     N/A    N/A N/A N/A MISG      30.06R
$$

GAZ059>098-102>109-301400-
CENTRAL GEORGIA

CITY           SKY/WX    TMP DP  RH WIND       PRES   REMARKS
AUGUSTA-BUSH   SUNNY     63  51  65 W6        30.01R
AUGUSTA-DANIEL SUNNY     65  48  54 W3        30.02R
COLUMBUS       SUNNY     59  49  69 NW7       30.07R
MACON          SUNNY     59  49  69 W6        30.06R
ROBINS AFB     SUNNY     58  50  73 N7        30.05R


CITY           SKY/WX    TMP DP  RH WIND       PRES   REMARKS
LAGRANGE*      SUNNY     59  54  83 N6        30.07S
MILLEDGEVILLE* SUNNY     59  54  82 W5        30.05R
$$

GAZ099>101-110>166-301400-
SOUTH GEORGIA

CITY           SKY/WX    TMP DP  RH WIND       PRES   REMARKS
SAVANNAH       MOSUNNY   69  57  65 N3        30.01S
VALDOSTA       SUNNY     67  56  67 N5        30.05R
ALMA           MOSUNNY   66  52  60 NW5       30.03R
ST SIMONS      SUNNY     72  59  63 N6        30.01R
FT STEWART     SUNNY     68  57  68 N1        30.00R
ALBANY         SUNNY     61  52  72 CALM      30.08R
HUNTER AFB     SUNNY     70  63  77 N3        29.99R
MOODY AFB      SUNNY     65  53  65 N7        30.03R
BRUNSWICK      SUNNY     70  63  78 NW3       30.03R


CITY           SKY/WX    TMP DP  RH WIND       PRES   REMARKS
BAINBRIDGE*    SUNNY     61  50  67 CALM      30.08R
MOULTRIE*      SUNNY     63  54  72 NW5       30.07R
VIDALIA*       MOSUNNY   66  55  68 NW3       30.04R
WAYCROSS*      SUNNY     68  58  70 N6        30.04R
DOUGLAS*       SUNNY     64  50  59 N6        30.06R
$$




USA.gov is the U.S. government's official web portal to all federal, state and local government web resources and services.